This demonstration page uses our WeatherBlox Daily Observations layout. Learn more.

Left ArrowRight Arrow

Hourly Observations for June 25, 2021

Temp ( °F °C ) Dew Point ( °F °C ) Humidity (%) Winds ( mph kmh ) Pressure ( in mb ) Visibility ( mi km ) Precip ( " mm )
12:53 am 00:53 Clear 50 10 47 8.3 89 89 N N/A 30.05 1018 10 16 N/A
1:53 am 01:53 Clear 49 9.4 47 8.3 93 93 N N/A 30.05 1018 10 16 N/A
2:53 am 02:53 Clear 49 9.4 47 8.3 93 93 N N/A 30.05 1018 10 16 N/A
3:53 am 03:53 Clear 44 6.7 44 6.7 100 100 W 3 6 30.05 1018 10 16 N/A
4:53 am 04:53 Clear 45 7.2 44 6.7 97 97 N N/A 30.05 1018 10 16 N/A
5:53 am 05:53 Sunny 45 7.2 44 6.7 97 97 N N/A 30.06 1018 10 16 N/A
6:09 am 06:09 Partly Cloudy with Mist and Fog 45 7.2 44 6.7 97 97 N N/A 30.10 1019 3 5 N/A
6:53 am 06:53 Sunny 51 10.6 49 9.4 92 92 N N/A 30.05 1018 10 16 N/A
7:53 am 07:53 Sunny 56 13.3 50 10 81 81 N N/A 30.05 1018 10 16 N/A
8:53 am 08:53 Sunny 62 16.7 51 10.6 67 67 VRB 3 6 30.05 1018 10 16 N/A
9:53 am 09:53 Sunny 67 19.4 49 9.4 53 53 E 6 9 30.02 1017 10 16 N/A
10:53 am 10:53 Sunny 71 21.7 49 9.4 46 46 ESE 8 13 30.02 1017 10 16 N/A
11:53 am 11:53 Sunny 74 23.3 47 8.3 38 38 undefined N/A 30.01 1016 10 16 N/A
12:53 pm 12:53 Sunny 76 24.4 44 6.7 32 32 VRB 3 6 29.99 1016 10 16 N/A
1:53 pm 13:53 Sunny 79 26.1 43 6.1 28 28 NW 9 15 29.97 1015 10 16 N/A
2:53 pm 14:53 Mostly Cloudy 77 25 44 6.7 31 31 VRB 7 11 29.97 1015 10 16 N/A
3:53 pm 15:53 Sunny 81 27.2 42 5.6 25 25 VRB 3 6 29.97 1015 10 16 N/A
4:53 pm 16:53 Mostly Sunny 82 27.8 42 5.6 24 24 NNW 6 9 29.95 1014 10 16 N/A
5:53 pm 17:53 Mostly Cloudy 83 28.3 43 6.1 24 24 W 9 15 29.95 1014 10 16 N/A
6:53 pm 18:53 Cloudy 80 26.7 43 6.1 27 27 W 9 15 29.94 1014 10 16 N/A
7:53 pm 19:53 Cloudy 79 26.1 44 6.7 29 29 N 9 15 29.93 1014 10 16 N/A
8:53 pm 20:53 Cloudy 77 25 48 8.9 36 36 NNW 13 20 29.95 1014 10 16 N/A
9:53 pm 21:53 Cloudy 75 23.9 49 9.4 40 40 NNW 7 11 29.97 1015 10 16 N/A
10:53 pm 22:53 Cloudy 72 22.2 49 9.4 44 44 W 7 11 29.98 1015 10 16 N/A
11:53 pm 23:53 Partly Cloudy 63 17.2 50 10 63 63 W 8 13 29.99 1016 10 16 N/A

Powered by AerisWeather